timestamp,wind_dir_avg,wind_spd_avg,wind_spd_max_dir,wind_spd_gust,battery_voltage,lat,long
2023-01-20 00:04:00+00:00,3.0,7.74,8.0,8.8,12.33,47.59359,-54.27349
2023-01-20 00:14:00+00:00,10.0,7.31,15.0,8.82,12.33,47.59359,-54.27349
2023-01-20 00:24:00+00:00,1.0,5.72,3.0,6.76,12.33,47.59359,-54.27349
2023-01-20 00:34:00+00:00,1.0,5.6,3.0,6.68,12.33,47.59359,-54.27349
2023-01-20 00:44:00+00:00,0.0,6.37,3.0,7.5,12.33,47.59359,-54.27349
2023-01-20 00:54:00+00:00,0.0,6.54,352.0,7.56,12.33,47.59359,-54.27349
2023-01-20 01:04:00+00:00,2.0,8.07,4.0,9.16,12.33,47.59359,-54.27349
2023-01-20 01:14:00+00:00,359.0,5.99,7.0,6.89,12.25,47.59359,-54.27349
2023-01-20 01:24:00+00:00,359.0,5.99,341.0,6.69,12.25,47.59359,-54.27349
2023-01-20 01:34:00+00:00,355.0,6.59,350.0,7.68,12.25,47.59359,-54.27349
2023-01-20 01:44:00+00:00,357.0,6.13,5.0,7.71,12.25,47.59359,-54.27349
2023-01-20 01:54:00+00:00,355.0,5.69,346.0,6.71,12.25,47.59359,-54.27349
2023-01-20 02:04:00+00:00,350.0,6.72,348.0,7.95,12.25,47.59359,-54.27349
2023-01-20 02:14:01+00:00,348.0,6.66,349.0,7.15,12.25,47.59359,-54.27349
2023-01-20 02:24:01+00:00,356.0,6.3,347.0,8.06,12.25,47.59359,-54.27349
2023-01-20 02:34:01+00:00,19.0,6.83,26.0,7.45,12.25,47.59359,-54.27349
2023-01-20 02:44:01+00:00,30.0,6.74,30.0,7.62,12.25,47.59359,-54.27349
2023-01-20 02:54:01+00:00,20.0,6.92,21.0,8.33,12.25,47.59359,-54.27349
2023-01-20 03:04:01+00:00,7.0,6.18,354.0,7.18,12.25,47.59359,-54.27349
2023-01-20 03:14:00+00:00,12.0,6.68,22.0,8.47,12.25,47.59359,-54.27349
2023-01-20 03:24:00+00:00,30.0,6.17,26.0,7.34,12.25,47.59359,-54.27349
2023-01-20 03:34:00+00:00,25.0,6.86,33.0,8.17,12.25,47.59359,-54.27349
2023-01-20 03:44:00+00:00,4.0,6.19,12.0,7.5,12.25,47.59359,-54.27349
2023-01-20 03:54:00+00:00,344.0,5.76,343.0,6.8,12.25,47.59359,-54.27349
2023-01-20 04:04:00+00:00,5.0,6.76,24.0,8.13,12.25,47.59359,-54.27349
2023-01-20 04:14:00+00:00,352.0,6.63,351.0,7.49,12.25,47.59359,-54.27349
2023-01-20 04:24:00+00:00,359.0,6.42,344.0,8.17,12.25,47.59359,-54.27349
2023-01-20 04:34:00+00:00,9.0,8.67,16.0,10.01,12.25,47.59359,-54.27349
2023-01-20 04:44:00+00:00,355.0,7.49,346.0,9.02,12.25,47.59359,-54.27349
2023-01-20 04:54:00+00:00,357.0,7.06,349.0,8.92,12.25,47.59359,-54.27349
2023-01-20 05:04:00+00:00,354.0,6.77,12.0,8.02,12.25,47.59359,-54.27349
2023-01-20 05:14:00+00:00,6.0,8.76,13.0,9.56,12.17,47.59359,-54.27349
2023-01-20 05:24:00+00:00,355.0,6.9,357.0,7.93,12.17,47.59359,-54.27349
2023-01-20 05:34:00+00:00,356.0,7.02,1.0,8.2,12.17,47.59359,-54.27349
2023-01-20 05:44:00+00:00,3.0,7.59,5.0,8.85,12.17,47.59359,-54.27349
2023-01-20 05:54:00+00:00,3.0,8.04,359.0,8.93,12.17,47.59359,-54.27349
2023-01-20 06:04:00+00:00,0.0,6.73,2.0,7.64,12.17,47.59359,-54.27349
2023-01-20 06:14:00+00:00,356.0,6.59,351.0,8.35,12.25,47.59359,-54.27349
2023-01-20 06:24:00+00:00,359.0,6.34,350.0,7.76,12.25,47.59359,-54.27349
2023-01-20 06:34:00+00:00,3.0,5.97,5.0,6.81,12.25,47.59359,-54.27349
2023-01-20 06:44:00+00:00,358.0,6.03,353.0,6.83,12.25,47.59359,-54.27349
2023-01-20 06:54:00+00:00,2.0,7.0,6.0,8.11,12.25,47.59359,-54.27349
2023-01-20 07:04:00+00:00,355.0,6.14,11.0,7.79,12.25,47.59359,-54.27349
2023-01-20 07:14:00+00:00,358.0,6.08,11.0,7.1,12.17,47.59359,-54.27349
2023-01-20 07:24:00+00:00,358.0,6.08,16.0,8.22,12.17,47.59359,-54.27349
2023-01-20 07:34:00+00:00,2.0,6.61,1.0,8.23,12.17,47.59359,-54.27349
2023-01-20 07:44:00+00:00,5.0,6.64,7.0,7.71,12.17,47.59359,-54.27349
2023-01-20 07:54:00+00:00,2.0,5.69,18.0,6.85,12.17,47.59359,-54.27349
2023-01-20 08:04:00+00:00,5.0,5.31,357.0,6.58,12.17,47.59359,-54.27349
2023-01-20 08:14:01+00:00,6.0,7.18,11.0,8.26,12.17,47.59359,-54.27349
2023-01-20 08:24:01+00:00,1.0,5.91,8.0,7.1,12.17,47.59359,-54.27349
2023-01-20 08:34:01+00:00,3.0,5.82,19.0,6.7,12.17,47.59359,-54.27349
2023-01-20 08:44:01+00:00,4.0,6.66,24.0,8.4,12.17,47.59359,-54.27349
2023-01-20 08:54:01+00:00,3.0,6.81,14.0,8.53,12.17,47.59359,-54.27349
2023-01-20 09:04:01+00:00,3.0,6.61,8.0,9.01,12.17,47.59359,-54.27349
2023-01-20 09:14:00+00:00,3.0,6.72,7.0,7.64,12.17,47.59359,-54.27349
2023-01-20 09:24:00+00:00,3.0,6.41,4.0,7.6,12.17,47.59359,-54.27349
2023-01-20 09:34:00+00:00,2.0,6.78,0.0,8.1,12.17,47.59359,-54.27349
2023-01-20 09:44:00+00:00,1.0,6.34,358.0,7.26,12.17,47.59359,-54.27349
2023-01-20 09:54:00+00:00,2.0,6.83,4.0,7.91,12.17,47.59359,-54.27349
2023-01-20 10:04:00+00:00,4.0,5.9,355.0,7.12,12.17,47.59359,-54.27349
2023-01-20 10:14:00+00:00,357.0,6.08,2.0,7.04,12.17,47.59359,-54.27349
2023-01-20 10:24:00+00:00,354.0,5.7,352.0,6.46,12.17,47.59359,-54.27349
2023-01-20 10:34:00+00:00,2.0,5.68,4.0,6.61,12.17,47.59359,-54.27349
2023-01-20 10:44:00+00:00,3.0,6.7,5.0,7.93,12.17,47.59359,-54.27349
2023-01-20 10:54:00+00:00,1.0,6.67,4.0,7.67,12.17,47.59359,-54.27349
2023-01-20 11:04:00+00:00,359.0,6.62,2.0,8.0,12.17,47.59359,-54.27349
2023-01-20 11:14:00+00:00,356.0,7.1,359.0,8.98,12.17,47.59359,-54.27349
2023-01-20 11:24:00+00:00,17.0,8.94,21.0,9.96,12.17,47.59359,-54.27349
2023-01-20 11:34:00+00:00,18.0,6.39,27.0,7.25,12.17,47.59359,-54.27349
2023-01-20 11:44:00+00:00,22.0,8.72,18.0,9.83,12.17,47.59359,-54.27349
2023-01-20 11:54:00+00:00,22.0,7.53,20.0,8.78,12.17,47.59359,-54.27349
2023-01-20 12:04:00+00:00,12.0,6.31,26.0,7.71,12.17,47.59359,-54.27349
2023-01-20 12:14:00+00:00,25.0,7.02,25.0,7.87,12.25,47.59359,-54.27349
2023-01-20 12:24:00+00:00,9.0,5.99,20.0,7.18,12.25,47.59359,-54.27349
2023-01-20 12:34:00+00:00,9.0,6.17,18.0,8.11,12.25,47.59359,-54.27349
2023-01-20 12:44:00+00:00,13.0,7.28,20.0,9.28,12.25,47.59359,-54.27349
2023-01-20 12:54:00+00:00,23.0,7.51,27.0,8.56,12.25,47.59359,-54.27349
2023-01-20 13:04:00+00:00,13.0,6.36,26.0,8.63,12.25,47.59359,-54.27349
2023-01-20 13:14:00+00:00,16.0,6.73,20.0,9.37,12.41,47.59359,-54.27349
2023-01-20 13:24:00+00:00,26.0,6.74,27.0,8.16,12.41,47.59359,-54.27349
2023-01-20 13:34:00+00:00,26.0,7.22,26.0,8.32,12.41,47.59359,-54.27349
2023-01-20 13:44:00+00:00,1.0,6.03,12.0,7.4,12.41,47.59359,-54.27349
2023-01-20 13:54:00+00:00,3.0,6.76,16.0,7.68,12.41,47.59359,-54.27349
2023-01-20 14:04:00+00:00,22.0,8.01,23.0,9.1,12.41,47.59359,-54.27349
2023-01-20 14:14:00+00:00,26.0,7.41,23.0,8.14,12.65,47.59359,-54.27349
2023-01-20 14:24:00+00:00,26.0,8.31,27.0,9.33,12.65,47.59359,-54.27349
2023-01-20 14:34:00+00:00,28.0,7.83,34.0,8.6,12.65,47.59359,-54.27349
2023-01-20 14:44:00+00:00,26.0,7.5,14.0,8.37,12.65,47.59359,-54.27349
2023-01-20 14:54:00+00:00,51.0,9.37,49.0,12.03,12.65,47.59359,-54.27349
2023-01-20 15:04:00+00:00,47.0,9.68,59.0,11.81,12.65,47.59359,-54.27349
2023-01-20 15:14:00+00:00,32.0,7.0,31.0,7.63,12.89,47.59359,-54.27349
2023-01-20 15:24:00+00:00,44.0,8.87,56.0,11.14,12.89,47.59359,-54.27349
2023-01-20 15:34:00+00:00,48.0,9.22,55.0,11.91,12.89,47.59359,-54.27349
2023-01-20 15:44:00+00:00,51.0,10.53,49.0,12.38,12.89,47.59359,-54.27349
2023-01-20 15:54:00+00:00,53.0,10.68,56.0,12.14,12.89,47.59359,-54.27349
2023-01-20 16:04:00+00:00,54.0,10.44,54.0,11.77,12.89,47.59359,-54.27349
2023-01-20 16:14:00+00:00,53.0,10.38,53.0,12.07,13.44,47.59359,-54.27349
2023-01-20 16:24:00+00:00,59.0,9.52,58.0,11.26,13.44,47.59359,-54.27349
2023-01-20 16:34:00+00:00,63.0,10.05,62.0,11.32,13.44,47.59359,-54.27349
2023-01-20 16:44:00+00:00,59.0,10.12,62.0,11.36,13.44,47.59359,-54.27349
2023-01-20 16:54:00+00:00,43.0,7.44,61.0,10.65,13.44,47.59359,-54.27349
2023-01-20 17:04:00+00:00,56.0,8.17,60.0,10.72,13.44,47.59359,-54.27349
2023-01-20 18:14:00+00:00,53.0,10.71,54.0,12.67,12.81,47.59359,-54.27349
2023-01-20 18:24:00+00:00,53.0,10.23,55.0,11.26,12.81,47.59359,-54.27349
2023-01-20 18:34:00+00:00,54.0,10.34,57.0,11.67,12.81,47.59359,-54.27349
2023-01-20 18:44:00+00:00,60.0,10.2,60.0,11.13,12.81,47.59359,-54.27349
2023-01-20 18:54:00+00:00,55.0,8.93,61.0,10.69,12.81,47.59359,-54.27349
2023-01-20 19:04:00+00:00,63.0,9.57,66.0,10.98,12.81,47.59359,-54.27349
2023-01-20 19:14:00+00:00,71.0,9.49,71.0,10.81,12.49,47.59359,-54.27349
2023-01-20 19:24:00+00:00,67.0,10.44,67.0,11.16,12.49,47.59359,-54.27349
2023-01-20 19:34:00+00:00,65.0,10.29,68.0,11.26,12.49,47.59359,-54.27349
2023-01-20 19:44:00+00:00,63.0,10.01,62.0,11.58,12.49,47.59359,-54.27349
2023-01-20 19:54:00+00:00,53.0,9.14,60.0,10.37,12.49,47.59359,-54.27349
2023-01-20 20:04:00+00:00,59.0,9.92,60.0,11.41,12.49,47.59359,-54.27349
2023-01-20 20:14:00+00:00,46.0,10.2,40.0,11.39,12.41,47.59359,-54.27349
2023-01-20 20:24:00+00:00,51.0,9.55,55.0,11.5,12.41,47.59359,-54.27349
2023-01-20 20:34:00+00:00,52.0,9.44,57.0,11.04,12.41,47.59359,-54.27349
2023-01-20 20:44:00+00:00,53.0,9.01,58.0,10.21,12.41,47.59359,-54.27349
2023-01-20 20:54:00+00:00,56.0,10.01,68.0,10.91,12.41,47.59359,-54.27349
2023-01-20 21:04:00+00:00,49.0,10.29,51.0,11.93,12.41,47.59359,-54.27349
2023-01-20 21:14:01+00:00,52.0,10.24,53.0,11.53,12.41,47.59359,-54.27349
2023-01-20 21:24:01+00:00,54.0,10.2,58.0,11.3,12.41,47.59359,-54.27349
2023-01-20 21:34:01+00:00,52.0,10.14,53.0,11.72,12.41,47.59359,-54.27349
2023-01-20 21:44:01+00:00,57.0,10.42,58.0,12.19,12.41,47.59359,-54.27349
2023-01-20 21:54:01+00:00,57.0,9.94,60.0,11.93,12.41,47.59359,-54.27349
2023-01-20 22:04:01+00:00,49.0,11.59,51.0,13.26,12.41,47.59359,-54.27349
2023-01-20 22:14:00+00:00,55.0,11.05,57.0,12.49,12.33,47.59359,-54.27349
2023-01-20 22:24:00+00:00,51.0,11.99,51.0,13.36,12.33,47.59359,-54.27349
2023-01-20 22:34:00+00:00,57.0,10.59,57.0,12.86,12.33,47.59359,-54.27349
2023-01-20 22:44:00+00:00,54.0,10.44,51.0,11.83,12.33,47.59359,-54.27349
2023-01-20 22:54:00+00:00,49.0,11.42,48.0,13.67,12.33,47.59359,-54.27349
2023-01-20 23:04:00+00:00,52.0,11.83,53.0,13.11,12.33,47.59359,-54.27349
2023-01-20 23:14:00+00:00,54.0,10.08,56.0,11.99,12.33,47.59359,-54.27349
2023-01-20 23:24:00+00:00,58.0,9.77,58.0,12.42,12.33,47.59359,-54.27349
2023-01-20 23:34:00+00:00,54.0,9.99,57.0,11.34,12.33,47.59359,-54.27349
2023-01-20 23:44:00+00:00,57.0,11.16,54.0,13.56,12.33,47.59359,-54.27349
2023-01-20 23:54:00+00:00,58.0,11.39,58.0,12.91,12.33,47.59359,-54.27349
